| time (UTC) | temp C | wind direction | speed KPH | gust KPH | rain 1hr cm | rain 24hr cm | rain mn cm | humidity % | barometer mb |
| 20260506023818 | 9 | 15 | 14.5 | 20.9 | 0.00 | 0.00 | 0.00 | 85 | 1007.6 |
| 20260506022814 | 9 | 18 | 14.5 | 19.3 | 0.00 | 0.00 | 0.00 | 84 | 1007.6 |
| 20260506022314 | 9 | 25 | 16.1 | 20.9 | 0.00 | 0.00 | 0.00 | 84 | 1007.6 |
| 20260506021815 | 9 | 25 | 14.5 | 20.9 | 0.00 | 0.00 | 0.00 | 84 | 1007.7 |
| 20260506021314 | 9 | 30 | 14.5 | 17.7 | 0.00 | 0.00 | 0.00 | 84 | 1007.8 |
| 20260506020815 | 9 | 21 | 14.5 | 19.3 | 0.00 | 0.00 | 0.00 | 84 | 1007.7 |
| 20260506015816 | 9 | 15 | 12.9 | 17.7 | 0.00 | 0.00 | 0.00 | 84 | 1007.9 |
| 20260506014815 | 9 | 15 | 12.9 | 17.7 | 0.00 | 0.00 | 0.00 | 83 | 1008.0 |
| 20260506014314 | 9 | 10 | 12.9 | 19.3 | 0.00 | 0.00 | 0.00 | 83 | 1008.0 |
| 20260506013814 | 9 | 14 | 14.5 | 19.3 | 0.00 | 0.00 | 0.00 | 83 | 1008.1 |
| 20260506012813 | 9 | 20 | 14.5 | 19.3 | 0.00 | 0.00 | 0.00 | 83 | 1008.1 |
| 20260506012313 | 9 | 14 | 14.5 | 19.3 | 0.00 | 0.00 | 0.00 | 83 | 1008.1 |
| 20260506011814 | 9 | 8 | 12.9 | 20.9 | 0.00 | 0.00 | 0.00 | 83 | 1008.1 |
| 20260506011314 | 9 | 24 | 16.1 | 20.9 | 0.00 | 0.00 | 0.00 | 83 | 1008.1 |
| 20260506010814 | 9 | 7 | 12.9 | 19.3 | 0.00 | 0.00 | 0.00 | 83 | 1008.1 |
| 20260506010314 | 9 | 10 | 14.5 | 19.3 | 0.00 | 0.00 | 0.00 | 83 | 1008.2 |
| 20260506005312 | 9 | 14 | 14.5 | 17.7 | 0.00 | 0.00 | 0.00 | 82 | 1008.2 |
| 20260506004813 | 9 | 11 | 12.9 | 17.7 | 0.00 | 0.00 | 0.00 | 82 | 1008.3 |
| 20260506004312 | 9 | 11 | 11.3 | 17.7 | 0.00 | 0.00 | 0.00 | 82 | 1008.3 |
| 20260506003812 | 9 | 14 | 12.9 | 17.7 | 0.00 | 0.00 | 0.00 | 82 | 1008.4 |
| 20260506003315 | 9 | 11 | 11.3 | 19.3 | 0.00 | 0.00 | 0.00 | 82 | 1008.4 |
| 20260506002814 | 9 | 17 | 14.5 | 19.3 | 0.00 | 0.00 | 0.00 | 82 | 1008.4 |
| 20260506002317 | 9 | 28 | 12.9 | 19.3 | 0.00 | 0.00 | 0.00 | 82 | 1008.6 |
| 20260506000813 | 9 | 32 | 14.5 | 20.9 | 0.00 | 0.00 | 0.00 | 81 | 1008.6 |
| 20260506000312 | 9 | 24 | 14.5 | 20.9 | 0.00 | 0.00 | 0.00 | 81 | 1008.7 |
| 20260505235811 | 9 | 31 | 12.9 | 17.7 | 0.00 | 0.00 | 0.00 | 81 | 1008.7 |
| 20260505235311 | 9 | 30 | 11.3 | 19.3 | 0.00 | 0.00 | 0.00 | 81 | 1008.8 |
| 20260505234808 | 9 | 18 | 9.7 | 19.3 | 0.00 | 0.00 | 0.00 | 81 | 1008.8 |
| 20260505234310 | 9 | 14 | 14.5 | 19.3 | 0.00 | 0.00 | 0.00 | 81 | 1008.9 |
| 20260505233309 | 9 | 25 | 14.5 | 22.5 | 0.00 | 0.00 | 0.00 | 81 | 1008.9 |
| 20260505232810 | 9 | 24 | 14.5 | 20.9 | 0.00 | 0.00 | 0.00 | 80 | 1008.9 |
| 20260505232310 | 9 | 30 | 16.1 | 20.9 | 0.00 | 0.00 | 0.00 | 80 | 1009.0 |
| 20260505231809 | 9 | 21 | 17.7 | 20.9 | 0.00 | 0.00 | 0.00 | 80 | 1009.0 |
| 20260505230809 | 9 | 28 | 16.1 | 25.7 | 0.00 | 0.00 | 0.00 | 80 | 1009.0 |
| 20260505230308 | 9 | 21 | 16.1 | 22.5 | 0.00 | 0.00 | 0.00 | 80 | 1009.0 |
| 20260505225310 | 9 | 27 | 12.9 | 20.9 | 0.00 | 0.00 | 0.00 | 80 | 1009.0 |
| 20260505224808 | 9 | 25 | 16.1 | 27.4 | 0.00 | 0.00 | 0.00 | 80 | 1009.0 |
| 20260505224307 | 9 | 24 | 16.1 | 27.4 | 0.00 | 0.00 | 0.00 | 80 | 1009.1 |
| 20260505223812 | 9 | 17 | 12.9 | 24.1 | 0.00 | 0.00 | 0.00 | 80 | 1009.1 |
| 20260505223308 | 9 | 30 | 17.7 | 22.5 | 0.00 | 0.00 | 0.00 | 80 | 1009.2 |
| 20260505222810 | 9 | 17 | 17.7 | 27.4 | 0.00 | 0.00 | 0.00 | 80 | 1009.2 |
| 20260505222307 | 9 | 21 | 17.7 | 27.4 | 0.00 | 0.00 | 0.00 | 81 | 1009.2 |
| 20260505221808 | 9 | 32 | 16.1 | 22.5 | 0.00 | 0.00 | 0.00 | 81 | 1009.2 |
| 20260505221308 | 9 | 8 | 16.1 | 27.4 | 0.00 | 0.00 | 0.00 | 81 | 1009.2 |
| 20260505220809 | 9 | 14 | 17.7 | 27.4 | 0.00 | 0.00 | 0.00 | 80 | 1009.3 |
| 20260505220307 | 9 | 44 | 17.7 | 24.1 | 0.00 | 0.00 | 0.00 | 81 | 1009.3 |
| 20260505215809 | 9 | 21 | 17.7 | 25.7 | 0.00 | 0.00 | 0.00 | 81 | 1009.3 |
| 20260505215308 | 9 | 31 | 17.7 | 25.7 | 0.00 | 0.00 | 0.00 | 81 | 1009.3 |
| 20260505214806 | 9 | 18 | 19.3 | 22.5 | 0.00 | 0.00 | 0.00 | 81 | 1009.4 |
| 20260505214306 | 9 | 20 | 14.5 | 24.1 | 0.00 | 0.00 | 0.00 | 81 | 1009.4 |
| 20260505213807 | 9 | 17 | 16.1 | 24.1 | 0.00 | 0.00 | 0.00 | 81 | 1009.4 |
| 20260505213306 | 9 | 31 | 16.1 | 22.5 | 0.00 | 0.00 | 0.00 | 81 | 1009.5 |
| 20260505212809 | 9 | 10 | 16.1 | 22.5 | 0.00 | 0.00 | 0.00 | 81 | 1009.5 |
| 20260505212308 | 9 | 23 | 17.7 | 22.5 | 0.00 | 0.00 | 0.00 | 81 | 1009.5 |
| 20260505211306 | 9 | 27 | 17.7 | 24.1 | 0.00 | 0.00 | 0.00 | 81 | 1009.5 |
| 20260505210306 | 9 | 18 | 17.7 | 25.7 | 0.00 | 0.00 | 0.00 | 81 | 1009.6 |
| 20260505205306 | 9 | 28 | 20.9 | 25.7 | 0.00 | 0.03 | 0.00 | 81 | 1009.6 |
| 20260505204808 | 9 | 27 | 20.9 | 27.4 | 0.00 | 0.03 | 0.00 | 81 | 1009.7 |
| 20260505204307 | 9 | 15 | 16.1 | 27.4 | 0.00 | 0.03 | 0.00 | 81 | 1009.7 |
| 20260505203806 | 9 | 27 | 19.3 | 25.7 | 0.00 | 0.03 | 0.00 | 81 | 1009.8 |
| 20260505203312 | 9 | 18 | 17.7 | 22.5 | 0.00 | 0.03 | 0.00 | 81 | 1009.8 |
| 20260505202804 | 9 | 25 | 16.1 | 24.1 | 0.00 | 0.03 | 0.00 | 81 | 1009.8 |
| 20260505202310 | 9 | 21 | 19.3 | 24.1 | 0.00 | 0.03 | 0.00 | 81 | 1009.8 |
| 20260505201807 | 9 | 15 | 16.1 | 24.1 | 0.00 | 0.03 | 0.00 | 81 | 1009.9 |
| 20260505200804 | 9 | 20 | 17.7 | 22.5 | 0.00 | 0.03 | 0.00 | 81 | 1009.9 |
| 20260505200308 | 9 | 28 | 12.9 | 24.1 | 0.00 | 0.03 | 0.00 | 81 | 1009.8 |
| 20260505195804 | 10 | 27 | 14.5 | 24.1 | 0.00 | 0.03 | 0.00 | 81 | 1009.9 |
| 20260505195305 | 10 | 38 | 14.5 | 22.5 | 0.00 | 0.03 | 0.00 | 81 | 1009.8 |
| 20260505194803 | 10 | 24 | 14.5 | 22.5 | 0.00 | 0.03 | 0.00 | 81 | 1009.8 |
| 20260505194305 | 10 | 25 | 14.5 | 22.5 | 0.00 | 0.03 | 0.00 | 81 | 1009.8 |
| 20260505193802 | 10 | 30 | 17.7 | 22.5 | 0.00 | 0.03 | 0.00 | 81 | 1009.9 |
| 20260505193304 | 10 | 20 | 17.7 | 22.5 | 0.00 | 0.03 | 0.00 | 81 | 1009.8 |
| 20260505192803 | 10 | 28 | 16.1 | 25.7 | 0.00 | 0.03 | 0.00 | 81 | 1009.7 |
| 20260505192306 | 10 | 20 | 16.1 | 29.0 | 0.00 | 0.03 | 0.00 | 81 | 1009.6 |
| 20260505191805 | 10 | 20 | 17.7 | 29.0 | 0.00 | 0.03 | 0.00 | 81 | 1009.6 |
| 20260505191304 | 10 | 15 | 14.5 | 27.4 | 0.00 | 0.03 | 0.00 | 81 | 1009.6 |
| 20260505185803 | 10 | 37 | 24.1 | 33.8 | 0.00 | 0.03 | 0.00 | 81 | 1009.4 |
| 20260505185306 | 10 | 17 | 24.1 | 29.0 | 0.00 | 0.03 | 0.00 | 81 | 1009.3 |
| 20260505184803 | 10 | 31 | 19.3 | 29.0 | 0.00 | 0.03 | 0.00 | 81 | 1009.3 |
| 20260505184302 | 10 | 10 | 14.5 | 29.0 | 0.00 | 0.03 | 0.00 | 81 | 1009.3 |
| 20260505183809 | 10 | 23 | 22.5 | 29.0 | 0.00 | 0.03 | 0.00 | 81 | 1009.2 |
| 20260505181802 | 10 | 6 | 22.5 | 29.0 | 0.00 | 0.03 | 0.00 | 80 | 1009.3 |
| 20260505181303 | 10 | 18 | 17.7 | 25.7 | 0.00 | 0.03 | 0.00 | 80 | 1009.4 |
| 20260505175757 | 11 | 15 | 17.7 | 29.0 | 0.00 | 0.03 | 0.00 | 80 | 1009.4 |
| 20260505174757 | 11 | 13 | 24.1 | 32.2 | 0.00 | 0.03 | 0.00 | 79 | 1009.4 |
| 20260505173755 | 11 | 14 | 19.3 | 29.0 | 0.00 | 0.03 | 0.00 | 79 | 1009.3 |
| 20260505173257 | 11 | 28 | 24.1 | 32.2 | 0.00 | 0.03 | 0.00 | 78 | 1009.3 |
| 20260505171754 | 11 | 14 | 20.9 | 29.0 | 0.00 | 0.03 | 0.00 | 77 | 1009.4 |
| 20260505171257 | 11 | 11 | 22.5 | 29.0 | 0.00 | 0.03 | 0.00 | 76 | 1009.4 |
| 20260505170755 | 11 | 14 | 17.7 | 27.4 | 0.00 | 0.03 | 0.00 | 76 | 1009.4 |
| 20260505170253 | 11 | 23 | 17.7 | 24.1 | 0.00 | 0.03 | 0.00 | 76 | 1009.5 |
| 20260505165753 | 11 | 18 | 14.5 | 25.7 | 0.00 | 0.03 | 0.00 | 75 | 1009.5 |
| 20260505165254 | 11 | 20 | 19.3 | 25.7 | 0.00 | 0.03 | 0.00 | 76 | 1009.5 |
| 20260505164755 | 11 | 21 | 19.3 | 25.7 | 0.00 | 0.03 | 0.00 | 75 | 1009.5 |
| 20260505164251 | 11 | 7 | 17.7 | 27.4 | 0.00 | 0.03 | 0.00 | 76 | 1009.6 |
| 20260505163752 | 11 | 13 | 22.5 | 27.4 | 0.00 | 0.03 | 0.00 | 75 | 1009.5 |
| 20260505163258 | 11 | 27 | 19.3 | 27.4 | 0.00 | 0.03 | 0.00 | 76 | 1009.6 |
| 20260505162752 | 11 | 11 | 19.3 | 29.0 | 0.00 | 0.03 | 0.00 | 76 | 1009.5 |
| 20260505161753 | 11 | 20 | 19.3 | 30.6 | 0.00 | 0.03 | 0.00 | 76 | 1009.6 |
| 20260505161253 | 11 | 17 | 22.5 | 32.2 | 0.00 | 0.03 | 0.00 | 76 | 1009.6 |
| 20260505160750 | 11 | 6 | 24.1 | 32.2 | 0.00 | 0.03 | 0.00 | 76 | 1009.6 |
| 20260505160252 | 11 | 13 | 20.9 | 32.2 | 0.00 | 0.03 | 0.00 | 77 | 1009.7 |
| 20260505153250 | 11 | 24 | 24.1 | 30.6 | 0.00 | 0.03 | 0.00 | 77 | 1009.7 |
| 20260505152744 | 11 | 18 | 17.7 | 25.7 | 0.00 | 0.03 | 0.00 | 78 | 1009.8 |
| 20260505152250 | 11 | 21 | 20.9 | 25.7 | 0.00 | 0.03 | 0.00 | 77 | 1009.7 |
| 20260505151743 | 11 | 7 | 22.5 | 25.7 | 0.00 | 0.03 | 0.00 | 78 | 1009.9 |
| 20260505151247 | 11 | 30 | 16.1 | 27.4 | 0.00 | 0.03 | 0.00 | 79 | 1009.9 |
| 20260505150742 | 11 | 23 | 16.1 | 27.4 | 0.00 | 0.03 | 0.00 | 79 | 1009.9 |
| 20260505140246 | 11 | 27 | 17.7 | 22.5 | 0.00 | 0.03 | 0.00 | 80 | 1010.3 |
| 20260505124739 | 11 | 18 | 16.1 | 22.5 | 0.00 | 0.03 | 0.00 | 79 | 1010.7 |
| 20260505124241 | 11 | 35 | 16.1 | 20.9 | 0.00 | 0.03 | 0.00 | 81 | 1010.8 |
| 20260505123739 | 11 | 27 | 16.1 | 19.3 | 0.00 | 0.03 | 0.00 | 80 | 1010.9 |
| 20260505123242 | 11 | 28 | 14.5 | 19.3 | 0.00 | 0.03 | 0.00 | 80 | 1011.0 |
| 20260505122255 | 10 | 35 | 16.1 | 20.9 | 0.00 | 0.03 | 0.00 | 80 | 1011.0 |
| 20260505121738 | 10 | 54 | 16.1 | 20.9 | 0.00 | 0.15 | 0.00 | 80 | 1010.9 |
| 20260505121241 | 11 | 48 | 14.5 | 20.9 | 0.00 | 0.23 | 0.00 | 80 | 1010.9 |
| 20260505120738 | 11 | 35 | 12.9 | 20.9 | 0.00 | 0.30 | 0.00 | 80 | 1010.9 |
| 20260505115336 | 11 | 30 | 14.5 | 20.9 | 0.00 | 0.30 | 0.00 | 80 | 1010.9 |
| 20260505114732 | 11 | 27 | 12.9 | 20.9 | 0.00 | 0.30 | 0.00 | 81 | 1010.9 |
| 20260505114232 | 11 | 27 | 12.9 | 20.9 | 0.00 | 0.30 | 0.00 | 80 | 1010.9 |
| 20260505113732 | 11 | 28 | 16.1 | 20.9 | 0.00 | 0.30 | 0.00 | 80 | 1010.9 |
| 20260505113233 | 10 | 30 | 12.9 | 20.9 | 0.00 | 0.30 | 0.00 | 81 | 1011.0 |
| 20260505112731 | 10 | 27 | 16.1 | 20.9 | 0.00 | 0.30 | 0.00 | 80 | 1010.9 |
| 20260505111732 | 10 | 44 | 14.5 | 19.3 | 0.00 | 0.30 | 0.00 | 80 | 1011.0 |
| 20260505111232 | 10 | 27 | 12.9 | 20.9 | 0.00 | 0.30 | 0.00 | 80 | 1011.1 |
| 20260505110734 | 10 | 56 | 12.9 | 20.9 | 0.00 | 0.30 | 0.00 | 79 | 1011.2 |
| 20260505110231 | 11 | 34 | 14.5 | 20.9 | 0.00 | 0.30 | 0.00 | 79 | 1011.2 |
| 20260505100731 | 10 | 37 | 17.7 | 22.5 | 0.00 | 0.30 | 0.00 | 80 | 1011.4 |
| 20260505100232 | 10 | 35 | 17.7 | 22.5 | 0.00 | 0.30 | 0.00 | 80 | 1011.4 |
| 20260505095731 | 10 | 39 | 14.5 | 22.5 | 0.00 | 0.30 | 0.00 | 81 | 1011.3 |
| 20260505094731 | 10 | 48 | 16.1 | 22.5 | 0.00 | 0.30 | 0.00 | 82 | 1011.5 |
| 20260505094231 | 10 | 44 | 17.7 | 24.1 | 0.00 | 0.30 | 0.00 | 81 | 1011.4 |
| 20260505093732 | 10 | 51 | 17.7 | 24.1 | 0.00 | 0.30 | 0.00 | 81 | 1011.5 |
| 20260505093232 | 10 | 25 | 17.7 | 22.5 | 0.00 | 0.30 | 0.00 | 81 | 1011.5 |
| 20260505092731 | 10 | 21 | 16.1 | 20.9 | 0.00 | 0.30 | 0.00 | 81 | 1011.6 |
| 20260505092231 | 10 | 20 | 14.5 | 22.5 | 0.00 | 0.30 | 0.00 | 81 | 1011.5 |
| 20260505091731 | 10 | 25 | 12.9 | 24.1 | 0.00 | 0.30 | 0.00 | 82 | 1011.5 |
| 20260505091231 | 10 | 34 | 19.3 | 24.1 | 0.00 | 0.30 | 0.00 | 80 | 1011.5 |
| 20260505090733 | 10 | 15 | 17.7 | 24.1 | 0.00 | 0.30 | 0.00 | 82 | 1011.5 |
| 20260505090232 | 10 | 46 | 17.7 | 24.1 | 0.00 | 0.30 | 0.00 | 81 | 1011.5 |
| 20260505085732 | 10 | 27 | 19.3 | 24.1 | 0.00 | 0.30 | 0.00 | 82 | 1011.5 |
| 20260505084732 | 10 | 39 | 22.5 | 25.7 | 0.00 | 0.30 | 0.00 | 82 | 1011.7 |
| 20260505083731 | 10 | 32 | 16.1 | 25.7 | 0.00 | 0.30 | 0.00 | 83 | 1011.7 |
| 20260505083231 | 9 | 32 | 19.3 | 25.7 | 0.00 | 0.30 | 0.00 | 83 | 1011.8 |
| 20260505082731 | 9 | 37 | 19.3 | 24.1 | 0.00 | 0.30 | 0.00 | 84 | 1011.7 |
| 20260505082231 | 9 | 44 | 16.1 | 24.1 | 0.00 | 0.30 | 0.00 | 85 | 1011.8 |
| 20260505081732 | 9 | 27 | 17.7 | 24.1 | 0.00 | 0.30 | 0.00 | 85 | 1011.9 |
| 20260505081231 | 9 | 49 | 16.1 | 24.1 | 0.00 | 0.30 | 0.00 | 85 | 1011.9 |
| 20260505080732 | 8 | 38 | 16.1 | 22.5 | 0.00 | 0.30 | 0.00 | 85 | 1011.9 |
| 20260505080231 | 8 | 34 | 17.7 | 25.7 | 0.00 | 0.30 | 0.00 | 85 | 1011.9 |
| 20260505075734 | 8 | 30 | 17.7 | 25.7 | 0.00 | 0.30 | 0.00 | 85 | 1012.1 |
| 20260505075231 | 8 | 20 | 19.3 | 24.1 | 0.00 | 0.30 | 0.00 | 85 | 1012.0 |
| 20260505074733 | 8 | 38 | 16.1 | 24.1 | 0.00 | 0.30 | 0.00 | 85 | 1012.1 |
| 20260505074232 | 8 | 42 | 17.7 | 24.1 | 0.00 | 0.30 | 0.00 | 85 | 1012.1 |
| 20260505073731 | 8 | 42 | 19.3 | 24.1 | 0.00 | 0.30 | 0.00 | 85 | 1012.1 |
| 20260505073231 | 8 | 38 | 14.5 | 22.5 | 0.00 | 0.30 | 0.00 | 86 | 1012.0 |
| 20260505072733 | 8 | 52 | 16.1 | 22.5 | 0.00 | 0.30 | 0.00 | 86 | 1012.0 |
| 20260505072231 | 8 | 39 | 14.5 | 22.5 | 0.00 | 0.30 | 0.00 | 86 | 1012.0 |
| 20260505071732 | 8 | 34 | 17.7 | 22.5 | 0.00 | 0.30 | 0.00 | 86 | 1012.0 |
| 20260505070232 | 8 | 32 | 14.5 | 20.9 | 0.00 | 0.30 | 0.00 | 87 | 1012.0 |
| 20260505065731 | 8 | 28 | 16.1 | 24.1 | 0.00 | 0.30 | 0.00 | 87 | 1012.0 |
| 20260505065232 | 8 | 48 | 17.7 | 24.1 | 0.00 | 0.30 | 0.00 | 87 | 1012.0 |
| 20260505064734 | 8 | 28 | 16.1 | 22.5 | 0.00 | 0.30 | 0.00 | 87 | 1012.0 |
| 20260505064231 | 8 | 31 | 17.7 | 27.4 | 0.00 | 0.30 | 0.00 | 87 | 1012.0 |
| 20260505063732 | 8 | 28 | 16.1 | 27.4 | 0.00 | 0.30 | 0.00 | 87 | 1011.9 |
| 20260505063236 | 8 | 49 | 16.1 | 27.4 | 0.00 | 0.30 | 0.00 | 87 | 1011.9 |
| 20260505062732 | 8 | 15 | 16.1 | 22.5 | 0.00 | 0.30 | 0.00 | 87 | 1011.9 |
| 20260505062231 | 8 | 63 | 16.1 | 22.5 | 0.00 | 0.30 | 0.00 | 87 | 1011.8 |
| 20260505061230 | 8 | 46 | 14.5 | 20.9 | 0.00 | 0.30 | 0.00 | 87 | 1011.9 |
| 20260505060730 | 8 | 49 | 14.5 | 25.7 | 0.00 | 0.30 | 0.00 | 86 | 1011.8 |
| 20260505060234 | 8 | 51 | 17.7 | 25.7 | 0.00 | 0.30 | 0.00 | 86 | 1011.8 |
| 20260505055731 | 8 | 46 | 17.7 | 24.1 | 0.00 | 0.30 | 0.00 | 87 | 1011.9 |
| 20260505054231 | 8 | 56 | 16.1 | 20.9 | 0.00 | 0.30 | 0.00 | 86 | 1011.9 |
| 20260505053731 | 8 | 41 | 14.5 | 20.9 | 0.00 | 0.30 | 0.00 | 87 | 1011.9 |
| 20260505053232 | 8 | 30 | 12.9 | 20.9 | 0.00 | 0.30 | 0.00 | 87 | 1011.9 |
| 20260505052730 | 8 | 27 | 12.9 | 24.1 | 0.00 | 0.30 | 0.00 | 87 | 1011.9 |
| 20260505052231 | 8 | 37 | 16.1 | 24.1 | 0.00 | 0.30 | 0.00 | 87 | 1012.0 |
| 20260505050732 | 8 | 42 | 16.1 | 22.5 | 0.00 | 0.30 | 0.00 | 87 | 1012.0 |
| 20260505050231 | 8 | 45 | 14.5 | 19.3 | 0.00 | 0.30 | 0.00 | 87 | 1011.9 |
| 20260505041732 | 8 | 54 | 14.5 | 20.9 | 0.00 | 0.30 | 0.00 | 86 | 1011.7 |
| 20260505041231 | 8 | 49 | 16.1 | 20.9 | 0.00 | 0.30 | 0.00 | 86 | 1011.8 |
| 20260505040731 | 8 | 51 | 14.5 | 20.9 | 0.00 | 0.30 | 0.00 | 86 | 1011.8 |
| 20260505040232 | 8 | 52 | 14.5 | 20.9 | 0.00 | 0.30 | 0.00 | 87 | 1011.7 |
| 20260505035730 | 8 | 52 | 14.5 | 22.5 | 0.00 | 0.30 | 0.00 | 87 | 1011.7 |
| 20260505035229 | 8 | 37 | 17.7 | 25.7 | 0.00 | 0.30 | 0.00 | 86 | 1011.7 |
| 20260505034729 | 8 | 51 | 20.9 | 25.7 | 0.00 | 0.30 | 0.00 | 87 | 1011.6 |
| 20260505034230 | 8 | 49 | 16.1 | 22.5 | 0.00 | 0.30 | 0.00 | 87 | 1011.6 |
| 20260505033729 | 8 | 56 | 16.1 | 20.9 | 0.00 | 0.30 | 0.00 | 86 | 1011.7 |
| 20260505033229 | 8 | 52 | 14.5 | 27.4 | 0.00 | 0.30 | 0.00 | 87 | 1011.7 |
| 20260505032729 | 8 | 42 | 17.7 | 27.4 | 0.00 | 0.30 | 0.00 | 86 | 1011.7 |
| 20260505032233 | 8 | 41 | 16.1 | 24.1 | 0.00 | 0.30 | 0.00 | 87 | 1011.7 |
| 20260505031711 | 8 | 41 | 19.3 | 24.1 | 0.00 | 0.30 | 0.00 | 86 | 1011.7 |
| 20260505031213 | 8 | 49 | 17.7 | 24.1 | 0.00 | 0.30 | 0.00 | 87 | 1011.8 |
| 20260505030712 | 8 | 45 | 17.7 | 24.1 | 0.00 | 0.30 | 0.00 | 87 | 1011.8 |
| 20260505025216 | 8 | 24 | 16.1 | 24.1 | 0.00 | 0.30 | 0.00 | 86 | 1012.0 |
| 20260505024211 | 8 | 49 | 16.1 | 22.5 | 0.00 | 0.30 | 0.00 | 86 | 1012.0 |